Theta_e
304 295 291 295 298 299 298 295 295 296 298 297 297 297 295 297 297 296 296 297 298 299 303 305 307 307 308 307 308 309 311 316 321 327 329 330 329 331 331 332 333 333 333 332
297 292 298 300 300 299 298 295 294 296 297 296 295 291 293 295 296 296 296 296 297 299 301 304 305 307 308 308 309 310 311 315 322 324 327 330 329 330 331 331 332 333 332 332
291 295 300 299 298 296 297 295 294 292 294 295 294 292 291 294 295 297 298 298 298 298 299 301 301 302 304 304 305 307 309 312 313 321 325 326 327 327 326 327 328 330 331 331
292 296 294 295 296 297 293 299 297 293 290 287 293 285 290 292 292 293 294 294 295 297 298 300 300 300 301 302 304 304 305 306 309 311 314 315 316 316 319 318 318 320 321 322
290 292 290 291 294 298 295 300 297 296 292 291 289 286 287 292 289 290 292 294 294 295 296 297 298 299 300 301 301 302 302 303 304 304 305 306 307 310 310 311 311 313 315 315
293 298 294 293 295 297 299 296 295 294 291 283 289 287 287 287 289 289 292 293 294 295 296 297 298 298 297 298 298 298 298 299 301 301 300 300 300 302 302 302 303 304 306 307
292 292 296 295 291 294 296 290 282 280 280 281 290 286 285 288 289 290 291 291 293 294 294 295 295 295 295 295 295 296 296 295 297 298 297 297 297 298 298 299 299 299 300 300
283 282 292 295 291 290 291 290 282 277 278 278 287 282 282 288 290 291 292 292 292 292 294 294 294 294 294 295 294 294 294 294 295 295 295 295 295 295 296 296 296 296 296 297
285 285 294 295 295 294 289 286 290 282 279 279 280 281 287 288 288 288 289 289 289 291 293 293 294 293 292 293 293 292 292 292 293 293 294 293 293 293 293 294 294 294 294 295
288 283 291 292 295 294 292 292 282 284 275 274 278 278 279 283 285 287 287 287 288 290 292 293 292 292 292 292 292 292 291 291 291 292 292 292 291 291 291 292 291 291 292 292
292 288 286 290 287 287 288 286 288 287 283 278 275 277 286 285 286 285 286 288 288 289 290 291 291 291 291 291 290 290 290 290 289 290 291 290 289 289 289 289 289 289 290 290
292 289 282 284 289 292 292 288 289 280 279 281 281 277 288 287 287 287 287 288 288 289 290 290 290 290 290 289 289 288 288 288 288 288 289 288 287 287 286 286 287 287 287 288
290 285 278 281 285 289 287 290 291 289 287 280 277 277 288 289 286 287 286 287 288 288 289 290 290 289 289 288 288 287 287 287 287 287 287 286 285 284 284 284 285 285 285 286
293 285 280 276 279 285 283 286 289 288 279 280 280 279 285 287 285 286 286 287 287 287 288 288 288 289 289 288 286 285 285 286 285 285 285 283 283 282 282 283 283 283 284 284
289 279 281 281 282 286 284 286 287 285 286 280 282 281 286 289 286 285 285 286 287 287 287 287 288 288 287 286 284 284 284 284 283 283 282 281 282 281 281 281 281 282 282 283
288 280 279 274 278 283 282 285 285 284 284 286 286 284 290 285 285 284 285 286 286 286 287 287 288 288 286 284 282 283 282 283 283 282 281 281 280 280 280 280 280 280 280 281
282 276 272 269 274 272 269 276 282 283 285 284 280 284 284 283 284 284 284 285 286 286 286 286 287 286 284 282 282 280 281 282 281 280 280 279 278 278 278 279 279 279 279 279
277 275 276 269 269 266 276 280 279 283 284 283 284 283 284 283 283 284 285 285 287 286 286 286 286 284 282 281 280 279 280 279 279 278 277 277 277 277 277 278 277 277 278 278
282 279 269 268 266 272 274 277 277 278 278 284 283 283 282 283 282 282 286 286 285 285 286 285 283 282 280 278 277 277 278 277 276 276 275 276 276 276 277 277 276 277 277 278
282 282 273 266 264 263 275 278 281 280 271 283 284 282 281 283 276 278 285 286 285 285 285 282 281 280 278 276 276 276 277 275 274 275 275 276 276 276 275 276 276 276 277 278
268 268 267 266 264 269 277 279 281 269 274 281 283 283 283 280 281 284 285 284 284 284 282 280 278 278 276 276 275 275 275 273 274 275 275 275 275 274 275 274 274 275 275 276
268 267 264 266 262 264 279 278 275 280 281 282 283 283 283 283 284 284 284 282 282 280 280 279 277 277 275 275 274 273 273 273 273 273 273 272 272 272 273 269 271 271 272 272
267 275 271 274 272 279 281 280 283 284 283 283 283 283 284 283 282 283 282 281 281 279 279 278 276 275 275 273 272 272 272 272 272 270 269 269 269 271 271 268 269 269 269 270
276 278 273 274 277 279 281 282 283 283 283 283 282 282 282 282 282 281 281 281 280 279 278 276 274 273 273 271 272 270 271 271 265 264 267 269 268 268 269 271 271 268 268 268
277 277 275 275 279 279 280 282 283 283 283 283 282 282 282 282 281 281 280 279 278 278 277 275 273 272 271 269 268 266 268 268 267 266 268 269 269 266 268 270 268 270 271 270
278 276 275 273 280 280 280 281 282 282 282 282 281 280 281 280 280 279 278 278 277 276 275 272 271 269 267 266 266 266 265 265 263 265 267 266 267 266 268 267 267 272 274 274
Wind_Speed
10 6 13 13 12 10 10 10 6 7 2 2 4 1 12 12 12 11 11 10 10 10 9 9 11 9 11 11 11 11 11 11 6 1 3 1 1 2 2 3 6 5 4 5
6 13 10 12 13 11 8 6 7 3 4 2 5 13 10 10 8 9 10 9 9 10 11 12 12 13 12 12 12 12 12 12 9 7 3 3 3 3 0 1 4 3 5 5
10 0 13 12 11 14 12 13 8 11 4 8 8 3 1 7 9 11 10 9 10 10 10 11 13 14 13 14 13 14 14 13 13 13 7 5 4 4 6 6 6 5 7 6
8 5 6 5 13 10 13 14 7 8 6 6 4 3 6 9 9 10 9 8 9 10 11 12 12 14 14 13 13 14 15 16 15 18 12 12 7 7 6 6 6 7 9 9
5 7 4 6 9 7 6 11 7 3 4 4 3 4 3 9 10 9 7 8 8 9 10 12 12 12 12 12 12 11 13 16 16 16 15 11 12 7 8 9 10 11 10 12
6 1 6 4 2 4 11 5 12 7 2 3 8 5 4 4 12 8 8 9 8 9 10 10 9 10 11 11 12 13 13 14 14 14 14 14 13 12 10 10 9 8 8 9
5 4 3 2 6 1 13 15 5 3 2 2 10 4 4 9 10 10 9 8 7 7 7 9 11 11 11 12 12 11 12 14 14 13 14 14 12 11 11 10 8 9 8 8
7 7 7 7 4 6 10 11 6 5 6 5 8 5 3 8 7 8 9 7 7 8 7 9 9 8 9 10 11 11 12 13 13 12 12 10 11 7 7 9 7 7 7 8
8 2 4 3 2 4 5 8 2 7 2 4 6 4 3 7 7 8 9 7 7 7 7 7 7 7 7 7 9 8 9 9 10 10 9 10 10 11 9 10 9 8 9 9
1 5 1 0 1 3 3 7 4 2 6 5 4 6 6 10 10 8 8 7 7 7 7 7 6 6 5 6 6 7 7 8 7 8 8 8 9 10 9 9 11 11 10 12
8 2 2 3 2 4 1 2 1 4 2 4 5 0 10 14 11 10 8 7 6 7 6 6 6 5 6 6 6 7 7 8 9 8 7 7 8 9 8 8 9 10 10 12
2 4 4 2 4 4 4 2 4 4 3 2 4 2 4 8 10 9 8 6 5 5 7 6 6 6 6 7 6 7 6 7 8 8 7 8 9 9 10 9 10 10 10 10
4 1 5 2 3 4 2 2 3 5 3 2 5 5 4 7 8 7 8 7 5 6 6 5 5 5 5 5 6 6 7 7 7 7 7 8 9 10 10 10 10 10 11 11
2 5 6 4 1 4 4 2 1 3 3 4 1 12 9 8 10 8 7 6 6 6 6 5 5 4 6 6 6 5 6 5 6 7 7 7 8 9 10 10 11 11 10 10
4 4 6 7 9 6 6 6 4 3 4 4 8 13 15 10 8 7 7 6 6 6 5 5 5 5 5 5 6 5 5 5 6 6 6 7 7 8 8 9 9 10 10 10
3 4 2 6 10 8 7 5 5 5 5 7 8 8 10 7 8 7 6 7 6 5 5 5 5 5 5 5 5 5 5 5 5 5 5 6 7 7 8 9 9 9 10 10
3 5 2 1 3 4 5 4 4 3 2 5 6 7 8 7 6 5 3 4 3 5 5 4 5 5 5 5 4 4 5 4 5 5 6 6 7 8 8 8 8 9 9 9
4 3 3 2 3 2 5 4 4 4 3 6 8 8 8 6 4 1 1 2 3 5 5 5 5 4 3 2 3 4 4 4 5 5 5 5 5 5 6 6 6 6 7 7
6 3 4 5 3 3 2 4 4 5 7 7 8 7 7 5 2 5 6 4 6 4 3 3 3 2 2 4 4 4 4 4 3 3 4 4 4 6 6 6 7 7 7 7
5 5 6 3 5 6 2 3 0 2 4 10 9 9 8 6 2 2 5 5 3 4 3 2 2 1 2 2 3 4 2 2 3 4 5 4 5 6 7 7 7 7 6 8
4 4 4 1 1 7 5 5 1 8 7 5 9 9 7 5 4 5 4 1 3 3 2 2 1 1 2 2 3 4 3 2 3 4 5 4 4 5 5 6 6 7 8 8
4 5 3 3 4 7 5 3 7 2 3 6 7 6 6 4 3 4 4 4 4 3 3 3 0 2 2 2 2 4 2 2 3 4 5 5 5 5 4 5 5 6 6 6
2 4 4 7 6 2 7 3 3 2 4 4 6 6 6 5 5 5 4 5 4 4 2 2 3 3 3 4 2 3 0 2 3 4 5 4 5 5 4 4 6 5 4 5
4 2 2 4 4 7 8 8 4 3 3 6 5 5 4 6 6 4 3 4 3 3 5 3 4 4 5 4 2 2 2 2 2 4 5 4 4 5 4 3 4 3 4 4
4 7 6 5 7 6 7 8 6 8 7 4 3 5 7 6 5 5 5 5 5 5 4 4 5 4 5 4 4 4 3 2 3 3 4 5 3 3 5 4 3 5 5 5
7 9 7 7 8 5 4 3 3 8 7 8 6 5 5 6 7 5 6 5 5 5 3 4 5 5 4 4 4 4 4 3 2 3 3 2 3 3 4 4 5 9 14 16
Wind_Direction
205 204 205 193 208 215 212 197 214 44 354 269 202 228 48 41 40 40 53 50 43 64 57 41 43 39 38 26 25 21 11 357 0 30 287 318 349 328 299 302 300 319 321 337
200 230 212 221 201 216 240 215 198 140 108 289 80 47 50 52 41 61 68 60 50 49 45 44 40 34 37 34 29 26 23 16 8 1 10 41 41 35 103 304 305 312 307 287
225 337 222 231 215 192 197 233 201 150 133 64 81 353 146 84 65 56 57 64 68 59 53 49 45 39 30 29 28 29 23 25 23 7 14 13 36 12 24 18 12 2 3 340
239 257 261 204 190 218 190 223 72 112 158 176 193 207 248 126 99 79 65 53 52 57 55 49 45 41 31 25 20 34 29 25 23 22 28 35 35 27 17 17 3 9 5 3
193 142 176 217 198 198 211 160 153 52 16 121 250 139 158 140 113 95 84 74 64 63 59 53 46 47 36 27 27 27 34 34 27 31 29 24 27 20 18 15 14 9 8 14
167 61 167 202 62 237 118 97 101 92 6 212 188 174 203 170 131 104 89 73 58 57 56 55 53 50 42 33 28 25 32 33 29 32 33 32 27 19 22 14 11 9 7 5
173 170 88 161 97 301 160 154 121 149 201 187 164 142 57 79 76 101 99 80 79 64 54 51 45 41 39 37 31 31 27 32 27 29 32 27 23 23 22 16 8 8 2 360
168 185 164 185 196 175 201 181 142 154 170 160 133 179 123 89 96 100 91 86 75 66 59 56 49 47 44 41 37 34 31 28 24 25 28 28 23 21 18 15 7 4 0 351
203 120 64 46 47 159 205 226 72 103 84 107 145 100 66 136 129 111 108 99 84 77 67 61 52 45 42 41 47 37 38 31 27 23 20 25 19 16 12 9 7 3 355 352
98 123 323 345 342 24 220 137 84 4 143 155 183 168 166 166 148 145 124 109 85 72 72 70 61 50 47 47 49 44 38 35 19 20 18 20 16 12 6 6 6 2 353 353
158 178 61 103 19 164 148 152 43 105 130 149 142 225 151 154 154 123 114 97 84 79 81 80 73 67 62 48 44 49 35 28 21 16 6 17 15 7 7 8 2 357 350 351
34 91 124 92 353 300 341 213 165 130 225 41 90 107 98 117 113 115 118 101 88 105 92 94 87 64 53 42 33 41 35 26 17 5 10 20 14 6 7 2 360 355 351 349
344 122 115 90 0 350 272 314 85 85 59 181 122 170 111 100 102 122 121 133 141 114 120 117 80 72 60 40 38 26 32 23 2 359 6 15 11 5 1 356 354 352 349 348
284 46 63 112 98 141 158 215 189 88 106 167 65 135 164 161 155 149 134 133 131 116 90 69 57 59 60 45 37 27 24 14 5 359 8 12 5 1 356 351 351 349 349 347
71 88 75 50 346 55 130 160 182 117 139 114 147 155 172 173 151 135 136 142 144 131 91 58 43 51 61 51 30 8 19 10 359 2 10 6 357 353 349 350 346 347 349 350
50 108 63 35 2 32 78 110 100 77 71 93 129 117 155 111 106 139 149 153 165 143 89 44 31 58 64 50 27 7 1 10 357 2 9 360 356 348 352 348 347 351 349 349
70 126 80 15 354 16 26 248 162 121 174 140 146 151 126 132 139 148 130 108 155 105 61 27 35 52 57 43 25 13 345 10 5 4 7 7 356 348 347 340 348 348 349 339
106 84 37 152 15 66 235 25 2 140 138 89 96 126 136 130 103 93 265 210 185 74 32 17 31 38 56 65 39 349 333 19 6 17 2 355 341 334 335 332 338 329 334 333
21 91 80 121 159 245 186 203 176 151 237 158 139 126 113 114 72 286 188 102 94 62 47 77 83 58 21 59 14 345 344 9 13 3 340 337 333 329 328 332 332 328 329 328
16 52 106 51 120 188 217 164 1 120 312 186 143 151 150 144 100 200 109 120 76 79 98 128 152 174 101 67 5 318 334 354 9 348 334 326 336 333 329 330 329 318 314 317
8 7 120 96 114 294 164 153 197 89 238 129 135 148 147 159 176 154 127 165 128 133 142 109 23 119 124 60 355 317 323 23 345 336 328 330 332 323 306 327 322 317 316 310
162 124 192 55 69 289 142 60 167 234 44 124 127 134 152 175 240 185 209 225 198 217 210 138 206 286 132 104 332 297 294 21 344 341 322 315 306 312 314 306 298 301 302 305
325 170 189 169 215 187 201 133 125 34 142 144 134 144 167 215 219 215 225 221 212 202 186 158 213 256 248 169 197 263 118 4 352 326 305 299 303 302 299 301 304 309 312 312
237 162 189 50 260 209 205 250 222 188 164 150 155 174 203 208 208 226 248 245 240 221 224 199 185 232 256 178 182 230 327 12 336 294 294 292 289 295 289 297 295 307 303 303
196 135 183 258 278 298 270 229 207 203 203 191 181 205 209 203 231 218 226 228 231 228 210 188 202 219 222 171 197 199 205 194 269 279 289 279 276 297 295 287 282 295 280 280
184 183 175 217 208 162 185 128 175 180 186 205 199 209 209 204 232 213 235 224 219 226 210 189 205 204 221 192 209 208 193 196 232 279 277 290 293 292 290 293 299 300 309 314